owner,sensor,date,latitude,longitude,vertical_datum,sea_water_temperature,qcFlag 
LUMCON,ioos:station:LUMCON:102:1,2016-04-01T00:00:00Z,29.1870,-90.6093,0.0,22.88,2 
LUMCON,ioos:station:LUMCON:102:1,2016-04-01T00:15:00Z,29.1870,-90.6093,0.0,22.91,2 
LUMCON,ioos:station:LUMCON:102:1,2016-04-01T00:30:00Z,29.1870,-90.6093,0.0,22.94,2 
LUMCON,ioos:station:LUMCON:102:1,2016-04-01T00:45:00Z,29.1870,-90.6093,0.0,22.95,2 
LUMCON,ioos:station:LUMCON:102:1,2016-04-01T01:00:00Z,29.1870,-90.6093,0.0,22.95,2 
LUMCON,ioos:station:LUMCON:102:1,2016-04-01T01:15:00Z,29.1870,-90.6093,0.0,22.95,2 
LUMCON,ioos:station:LUMCON:102:1,2016-04-01T01:30:00Z,29.1870,-90.6093,0.0,22.95,2 
LUMCON,ioos:station:LUMCON:102:1,2016-04-01T01:45:00Z,29.1870,-90.6093,0.0,22.94,2 
LUMCON,ioos:station:LUMCON:102:1,2016-04-01T02:00:00Z,29.1870,-90.6093,0.0,22.93,2 
LUMCON,ioos:station:LUMCON:102:1,2016-04-01T02:15:00Z,29.1870,-90.6093,0.0,22.93,2 
LUMCON,ioos:station:LUMCON:102:1,2016-04-01T02:30:00Z,29.1870,-90.6093,0.0,22.92,2 
LUMCON,ioos:station:LUMCON:102:1,2016-04-01T02:45:00Z,29.1870,-90.6093,0.0,22.91,2 
LUMCON,ioos:station:LUMCON:102:1,2016-04-01T03:00:00Z,29.1870,-90.6093,0.0,22.9,2 
LUMCON,ioos:station:LUMCON:102:1,2016-04-01T03:15:00Z,29.1870,-90.6093,0.0,22.89,2 
LUMCON,ioos:station:LUMCON:102:1,2016-04-01T03:30:00Z,29.1870,-90.6093,0.0,22.88,2 
LUMCON,ioos:station:LUMCON:102:1,2016-04-01T03:45:00Z,29.1870,-90.6093,0.0,22.87,2 
LUMCON,ioos:station:LUMCON:102:1,2016-04-01T04:00:00Z,29.1870,-90.6093,0.0,22.87,2 
LUMCON,ioos:station:LUMCON:102:1,2016-04-01T04:15:00Z,29.1870,-90.6093,0.0,22.86,2 
LUMCON,ioos:station:LUMCON:102:1,2016-04-01T04:30:00Z,29.1870,-90.6093,0.0,22.85,2 
LUMCON,ioos:station:LUMCON:102:1,2016-04-01T04:45:00Z,29.1870,-90.6093,0.0,22.85,2 
LUMCON,ioos:station:LUMCON:102:1,2016-04-01T05:00:00Z,29.1870,-90.6093,0.0,22.84,2 
LUMCON,ioos:station:LUMCON:102:1,2016-04-01T05:15:00Z,29.1870,-90.6093,0.0,22.84,2 
LUMCON,ioos:station:LUMCON:102:1,2016-04-01T05:30:00Z,29.1870,-90.6093,0.0,22.83,2 
LUMCON,ioos:station:LUMCON:102:1,2016-04-01T05:45:00Z,29.1870,-90.6093,0.0,22.83,2 
LUMCON,ioos:station:LUMCON:102:1,2016-04-01T06:00:00Z,29.1870,-90.6093,0.0,22.83,2 
LUMCON,ioos:station:LUMCON:102:1,2016-04-01T06:15:00Z,29.1870,-90.6093,0.0,22.83,2 
LUMCON,ioos:station:LUMCON:102:1,2016-04-01T06:30:00Z,29.1870,-90.6093,0.0,22.85,2 
LUMCON,ioos:station:LUMCON:102:1,2016-04-01T06:45:00Z,29.1870,-90.6093,0.0,22.88,2 
LUMCON,ioos:station:LUMCON:102:1,2016-04-01T07:00:00Z,29.1870,-90.6093,0.0,22.94,2 
LUMCON,ioos:station:LUMCON:102:1,2016-04-01T07:15:00Z,29.1870,-90.6093,0.0,22.94,2 
LUMCON,ioos:station:LUMCON:102:1,2016-04-01T07:30:00Z,29.1870,-90.6093,0.0,22.93,2 
LUMCON,ioos:station:LUMCON:102:1,2016-04-01T07:45:00Z,29.1870,-90.6093,0.0,22.93,2 
LUMCON,ioos:station:LUMCON:102:1,2016-04-01T08:00:00Z,29.1870,-90.6093,0.0,22.93,2 
LUMCON,ioos:station:LUMCON:102:1,2016-04-01T08:15:00Z,29.1870,-90.6093,0.0,22.93,2 
LUMCON,ioos:station:LUMCON:102:1,2016-04-01T08:30:00Z,29.1870,-90.6093,0.0,22.93,2 
LUMCON,ioos:station:LUMCON:102:1,2016-04-01T08:45:00Z,29.1870,-90.6093,0.0,22.93,2 
LUMCON,ioos:station:LUMCON:102:1,2016-04-01T09:00:00Z,29.1870,-90.6093,0.0,22.94,2 
LUMCON,ioos:station:LUMCON:102:1,2016-04-01T09:15:00Z,29.1870,-90.6093,0.0,22.95,2 
LUMCON,ioos:station:LUMCON:102:1,2016-04-01T09:30:00Z,29.1870,-90.6093,0.0,22.99,2 
LUMCON,ioos:station:LUMCON:102:1,2016-04-01T09:45:00Z,29.1870,-90.6093,0.0,22.98,2 
LUMCON,ioos:station:LUMCON:102:1,2016-04-01T10:00:00Z,29.1870,-90.6093,0.0,22.98,2 
LUMCON,ioos:station:LUMCON:102:1,2016-04-01T10:15:00Z,29.1870,-90.6093,0.0,22.98,2 
LUMCON,ioos:station:LUMCON:102:1,2016-04-01T10:30:00Z,29.1870,-90.6093,0.0,22.96,2 
LUMCON,ioos:station:LUMCON:102:1,2016-04-01T10:45:00Z,29.1870,-90.6093,0.0,22.97,2 
LUMCON,ioos:station:LUMCON:102:1,2016-04-01T11:00:00Z,29.1870,-90.6093,0.0,22.99,2 
LUMCON,ioos:station:LUMCON:102:1,2016-04-01T11:15:00Z,29.1870,-90.6093,0.0,22.98,2 
LUMCON,ioos:station:LUMCON:102:1,2016-04-01T11:30:00Z,29.1870,-90.6093,0.0,22.92,2 
LUMCON,ioos:station:LUMCON:102:1,2016-04-01T11:45:00Z,29.1870,-90.6093,0.0,22.92,2 
LUMCON,ioos:station:LUMCON:102:1,2016-04-01T12:00:00Z,29.1870,-90.6093,0.0,22.92,2 
LUMCON,ioos:station:LUMCON:102:1,2016-04-01T12:15:00Z,29.1870,-90.6093,0.0,22.91,2 
LUMCON,ioos:station:LUMCON:102:1,2016-04-01T12:30:00Z,29.1870,-90.6093,0.0,22.91,2 
LUMCON,ioos:station:LUMCON:102:1,2016-04-01T12:45:00Z,29.1870,-90.6093,0.0,22.91,2 
LUMCON,ioos:station:LUMCON:102:1,2016-04-01T13:00:00Z,29.1870,-90.6093,0.0,22.91,2 
LUMCON,ioos:station:LUMCON:102:1,2016-04-01T13:15:00Z,29.1870,-90.6093,0.0,22.9,2 
LUMCON,ioos:station:LUMCON:102:1,2016-04-01T13:30:00Z,29.1870,-90.6093,0.0,22.91,2 
LUMCON,ioos:station:LUMCON:102:1,2016-04-01T13:45:00Z,29.1870,-90.6093,0.0,22.93,2 
LUMCON,ioos:station:LUMCON:102:1,2016-04-01T14:00:00Z,29.1870,-90.6093,0.0,22.93,2 
LUMCON,ioos:station:LUMCON:102:1,2016-04-01T14:15:00Z,29.1870,-90.6093,0.0,22.93,2 
LUMCON,ioos:station:LUMCON:102:1,2016-04-01T14:30:00Z,29.1870,-90.6093,0.0,22.93,2 
LUMCON,ioos:station:LUMCON:102:1,2016-04-01T14:45:00Z,29.1870,-90.6093,0.0,22.98,2 
LUMCON,ioos:station:LUMCON:102:1,2016-04-01T15:00:00Z,29.1870,-90.6093,0.0,23.0,2 
LUMCON,ioos:station:LUMCON:102:1,2016-04-01T15:15:00Z,29.1870,-90.6093,0.0,23.0,2 
LUMCON,ioos:station:LUMCON:102:1,2016-04-01T15:30:00Z,29.1870,-90.6093,0.0,22.99,2 
LUMCON,ioos:station:LUMCON:102:1,2016-04-01T15:45:00Z,29.1870,-90.6093,0.0,22.96,2 
LUMCON,ioos:station:LUMCON:102:1,2016-04-01T16:00:00Z,29.1870,-90.6093,0.0,22.94,2 
LUMCON,ioos:station:LUMCON:102:1,2016-04-01T16:15:00Z,29.1870,-90.6093,0.0,22.95,2 
LUMCON,ioos:station:LUMCON:102:1,2016-04-01T16:30:00Z,29.1870,-90.6093,0.0,22.92,2 
LUMCON,ioos:station:LUMCON:102:1,2016-04-01T16:45:00Z,29.1870,-90.6093,0.0,22.89,2 
LUMCON,ioos:station:LUMCON:102:1,2016-04-01T17:00:00Z,29.1870,-90.6093,0.0,22.89,2 
LUMCON,ioos:station:LUMCON:102:1,2016-04-01T17:15:00Z,29.1870,-90.6093,0.0,22.92,2 
LUMCON,ioos:station:LUMCON:102:1,2016-04-01T17:30:00Z,29.1870,-90.6093,0.0,22.95,2 
LUMCON,ioos:station:LUMCON:102:1,2016-04-01T17:45:00Z,29.1870,-90.6093,0.0,22.94,2 
LUMCON,ioos:station:LUMCON:102:1,2016-04-01T18:00:00Z,29.1870,-90.6093,0.0,22.92,2 
LUMCON,ioos:station:LUMCON:102:1,2016-04-01T18:15:00Z,29.1870,-90.6093,0.0,22.91,2 
LUMCON,ioos:station:LUMCON:102:1,2016-04-01T18:30:00Z,29.1870,-90.6093,0.0,22.89,2 
LUMCON,ioos:station:LUMCON:102:1,2016-04-01T18:45:00Z,29.1870,-90.6093,0.0,22.92,2 
LUMCON,ioos:station:LUMCON:102:1,2016-04-01T19:00:00Z,29.1870,-90.6093,0.0,22.94,2 
LUMCON,ioos:station:LUMCON:102:1,2016-04-01T19:15:00Z,29.1870,-90.6093,0.0,22.94,2 
LUMCON,ioos:station:LUMCON:102:1,2016-04-01T19:30:00Z,29.1870,-90.6093,0.0,23.0,2 
LUMCON,ioos:station:LUMCON:102:1,2016-04-01T19:45:00Z,29.1870,-90.6093,0.0,22.98,2 
LUMCON,ioos:station:LUMCON:102:1,2016-04-01T20:00:00Z,29.1870,-90.6093,0.0,22.97,2 
LUMCON,ioos:station:LUMCON:102:1,2016-04-01T20:15:00Z,29.1870,-90.6093,0.0,22.96,2 
LUMCON,ioos:station:LUMCON:102:1,2016-04-01T20:30:00Z,29.1870,-90.6093,0.0,23.0,2 
LUMCON,ioos:station:LUMCON:102:1,2016-04-01T20:45:00Z,29.1870,-90.6093,0.0,23.02,2 
LUMCON,ioos:station:LUMCON:102:1,2016-04-01T21:00:00Z,29.1870,-90.6093,0.0,23.01,2 
LUMCON,ioos:station:LUMCON:102:1,2016-04-01T21:15:00Z,29.1870,-90.6093,0.0,22.98,2 
LUMCON,ioos:station:LUMCON:102:1,2016-04-01T21:30:00Z,29.1870,-90.6093,0.0,22.99,2 
LUMCON,ioos:station:LUMCON:102:1,2016-04-01T21:45:00Z,29.1870,-90.6093,0.0,22.85,2 
LUMCON,ioos:station:LUMCON:102:1,2016-04-01T22:15:00Z,29.1870,-90.6093,0.0,22.82,2 
LUMCON,ioos:station:LUMCON:102:1,2016-04-01T22:30:00Z,29.1870,-90.6093,0.0,22.83,2 
LUMCON,ioos:station:LUMCON:102:1,2016-04-01T22:45:00Z,29.1870,-90.6093,0.0,22.83,2 
LUMCON,ioos:station:LUMCON:102:1,2016-04-01T23:00:00Z,29.1870,-90.6093,0.0,22.85,2 
LUMCON,ioos:station:LUMCON:102:1,2016-04-01T23:15:00Z,29.1870,-90.6093,0.0,22.84,2 
LUMCON,ioos:station:LUMCON:102:1,2016-04-01T23:30:00Z,29.1870,-90.6093,0.0,22.75,2 
LUMCON,ioos:station:LUMCON:102:1,2016-04-01T23:45:00Z,29.1870,-90.6093,0.0,22.67,2 
LUMCON,ioos:station:LUMCON:102:1,2016-04-02T00:00:00Z,29.1870,-90.6093,0.0,22.62,2 
LUMCON,ioos:station:LUMCON:102:1,2016-04-02T00:15:00Z,29.1870,-90.6093,0.0,22.62,2 
LUMCON,ioos:station:LUMCON:102:1,2016-04-02T00:30:00Z,29.1870,-90.6093,0.0,22.6,2 
LUMCON,ioos:station:LUMCON:102:1,2016-04-02T00:45:00Z,29.1870,-90.6093,0.0,22.5,2 
LUMCON,ioos:station:LUMCON:102:1,2016-04-02T01:00:00Z,29.1870,-90.6093,0.0,22.38,2 
LUMCON,ioos:station:LUMCON:102:1,2016-04-02T01:15:00Z,29.1870,-90.6093,0.0,22.39,2 
LUMCON,ioos:station:LUMCON:102:1,2016-04-02T01:30:00Z,29.1870,-90.6093,0.0,22.31,2 
LUMCON,ioos:station:LUMCON:102:1,2016-04-02T01:45:00Z,29.1870,-90.6093,0.0,22.25,2 
LUMCON,ioos:station:LUMCON:102:1,2016-04-02T02:00:00Z,29.1870,-90.6093,0.0,22.14,2 
LUMCON,ioos:station:LUMCON:102:1,2016-04-02T02:15:00Z,29.1870,-90.6093,0.0,22.05,2 
LUMCON,ioos:station:LUMCON:102:1,2016-04-02T02:30:00Z,29.1870,-90.6093,0.0,22.02,2 
LUMCON,ioos:station:LUMCON:102:1,2016-04-02T02:45:00Z,29.1870,-90.6093,0.0,21.99,2 
LUMCON,ioos:station:LUMCON:102:1,2016-04-02T03:00:00Z,29.1870,-90.6093,0.0,21.92,2 
LUMCON,ioos:station:LUMCON:102:1,2016-04-02T03:15:00Z,29.1870,-90.6093,0.0,21.91,2 
LUMCON,ioos:station:LUMCON:102:1,2016-04-02T03:30:00Z,29.1870,-90.6093,0.0,21.89,2 
LUMCON,ioos:station:LUMCON:102:1,2016-04-02T03:45:00Z,29.1870,-90.6093,0.0,21.81,2 
LUMCON,ioos:station:LUMCON:102:1,2016-04-02T04:00:00Z,29.1870,-90.6093,0.0,21.72,2 
LUMCON,ioos:station:LUMCON:102:1,2016-04-02T04:15:00Z,29.1870,-90.6093,0.0,21.63,2 
LUMCON,ioos:station:LUMCON:102:1,2016-04-02T04:30:00Z,29.1870,-90.6093,0.0,21.55,2 
LUMCON,ioos:station:LUMCON:102:1,2016-04-02T04:45:00Z,29.1870,-90.6093,0.0,21.48,2 
LUMCON,ioos:station:LUMCON:102:1,2016-04-02T05:00:00Z,29.1870,-90.6093,0.0,21.42,2 
LUMCON,ioos:station:LUMCON:102:1,2016-04-02T05:15:00Z,29.1870,-90.6093,0.0,21.38,2 
LUMCON,ioos:station:LUMCON:102:1,2016-04-02T05:30:00Z,29.1870,-90.6093,0.0,21.35,2 
LUMCON,ioos:station:LUMCON:102:1,2016-04-02T05:45:00Z,29.1870,-90.6093,0.0,21.24,2 
LUMCON,ioos:station:LUMCON:102:1,2016-04-02T06:00:00Z,29.1870,-90.6093,0.0,21.09,2 
LUMCON,ioos:station:LUMCON:102:1,2016-04-02T06:15:00Z,29.1870,-90.6093,0.0,21.17,2 
LUMCON,ioos:station:LUMCON:102:1,2016-04-02T06:30:00Z,29.1870,-90.6093,0.0,21.15,2 
LUMCON,ioos:station:LUMCON:102:1,2016-04-02T06:45:00Z,29.1870,-90.6093,0.0,21.15,2 
LUMCON,ioos:station:LUMCON:102:1,2016-04-02T07:00:00Z,29.1870,-90.6093,0.0,21.13,2 
LUMCON,ioos:station:LUMCON:102:1,2016-04-02T07:15:00Z,29.1870,-90.6093,0.0,21.1,2 
LUMCON,ioos:station:LUMCON:102:1,2016-04-02T07:30:00Z,29.1870,-90.6093,0.0,21.04,2 
LUMCON,ioos:station:LUMCON:102:1,2016-04-02T07:45:00Z,29.1870,-90.6093,0.0,20.97,2 
LUMCON,ioos:station:LUMCON:102:1,2016-04-02T08:00:00Z,29.1870,-90.6093,0.0,20.85,2 
LUMCON,ioos:station:LUMCON:102:1,2016-04-02T08:15:00Z,29.1870,-90.6093,0.0,20.73,2 
LUMCON,ioos:station:LUMCON:102:1,2016-04-02T08:30:00Z,29.1870,-90.6093,0.0,20.64,2 
LUMCON,ioos:station:LUMCON:102:1,2016-04-02T08:45:00Z,29.1870,-90.6093,0.0,20.53,2 
LUMCON,ioos:station:LUMCON:102:1,2016-04-02T09:00:00Z,29.1870,-90.6093,0.0,20.41,2 
LUMCON,ioos:station:LUMCON:102:1,2016-04-02T09:15:00Z,29.1870,-90.6093,0.0,20.28,2 
LUMCON,ioos:station:LUMCON:102:1,2016-04-02T09:30:00Z,29.1870,-90.6093,0.0,20.16,2 
LUMCON,ioos:station:LUMCON:102:1,2016-04-02T09:45:00Z,29.1870,-90.6093,0.0,19.89,2 
LUMCON,ioos:station:LUMCON:102:1,2016-04-02T10:00:00Z,29.1870,-90.6093,0.0,19.94,2 
LUMCON,ioos:station:LUMCON:102:1,2016-04-02T10:15:00Z,29.1870,-90.6093,0.0,19.98,2 
LUMCON,ioos:station:LUMCON:102:1,2016-04-02T10:30:00Z,29.1870,-90.6093,0.0,19.96,2 
LUMCON,ioos:station:LUMCON:102:1,2016-04-02T10:45:00Z,29.1870,-90.6093,0.0,19.88,2 
LUMCON,ioos:station:LUMCON:102:1,2016-04-02T11:00:00Z,29.1870,-90.6093,0.0,19.74,2 
LUMCON,ioos:station:LUMCON:102:1,2016-04-02T11:15:00Z,29.1870,-90.6093,0.0,19.78,2 
LUMCON,ioos:station:LUMCON:102:1,2016-04-02T11:30:00Z,29.1870,-90.6093,0.0,19.79,2 
LUMCON,ioos:station:LUMCON:102:1,2016-04-02T11:45:00Z,29.1870,-90.6093,0.0,19.74,2 
LUMCON,ioos:station:LUMCON:102:1,2016-04-02T12:00:00Z,29.1870,-90.6093,0.0,19.75,2 
LUMCON,ioos:station:LUMCON:102:1,2016-04-02T12:15:00Z,29.1870,-90.6093,0.0,19.7,2 
LUMCON,ioos:station:LUMCON:102:1,2016-04-02T12:30:00Z,29.1870,-90.6093,0.0,19.64,2 
LUMCON,ioos:station:LUMCON:102:1,2016-04-02T12:45:00Z,29.1870,-90.6093,0.0,19.75,2 
LUMCON,ioos:station:LUMCON:102:1,2016-04-02T13:00:00Z,29.1870,-90.6093,0.0,19.77,2 
LUMCON,ioos:station:LUMCON:102:1,2016-04-02T13:15:00Z,29.1870,-90.6093,0.0,19.64,2 
LUMCON,ioos:station:LUMCON:102:1,2016-04-02T13:30:00Z,29.1870,-90.6093,0.0,19.47,2 
LUMCON,ioos:station:LUMCON:102:1,2016-04-02T13:45:00Z,29.1870,-90.6093,0.0,19.3,2 
LUMCON,ioos:station:LUMCON:102:1,2016-04-02T14:00:00Z,29.1870,-90.6093,0.0,19.19,2 
LUMCON,ioos:station:LUMCON:102:1,2016-04-02T14:15:00Z,29.1870,-90.6093,0.0,19.08,2 
LUMCON,ioos:station:LUMCON:102:1,2016-04-02T14:30:00Z,29.1870,-90.6093,0.0,19.04,2 
LUMCON,ioos:station:LUMCON:102:1,2016-04-02T14:45:00Z,29.1870,-90.6093,0.0,19.05,2 
LUMCON,ioos:station:LUMCON:102:1,2016-04-02T15:00:00Z,29.1870,-90.6093,0.0,19.05,2 
LUMCON,ioos:station:LUMCON:102:1,2016-04-02T15:15:00Z,29.1870,-90.6093,0.0,19.12,2 
LUMCON,ioos:station:LUMCON:102:1,2016-04-02T15:30:00Z,29.1870,-90.6093,0.0,19.19,2 
LUMCON,ioos:station:LUMCON:102:1,2016-04-02T15:45:00Z,29.1870,-90.6093,0.0,19.36,2 
LUMCON,ioos:station:LUMCON:102:1,2016-04-02T16:00:00Z,29.1870,-90.6093,0.0,19.39,2 
LUMCON,ioos:station:LUMCON:102:1,2016-04-02T16:15:00Z,29.1870,-90.6093,0.0,19.4,2 
LUMCON,ioos:station:LUMCON:102:1,2016-04-02T16:30:00Z,29.1870,-90.6093,0.0,19.48,2 
LUMCON,ioos:station:LUMCON:102:1,2016-04-02T16:45:00Z,29.1870,-90.6093,0.0,19.61,2 
LUMCON,ioos:station:LUMCON:102:1,2016-04-02T17:00:00Z,29.1870,-90.6093,0.0,19.77,2 
LUMCON,ioos:station:LUMCON:102:1,2016-04-02T17:15:00Z,29.1870,-90.6093,0.0,19.86,2 
LUMCON,ioos:station:LUMCON:102:1,2016-04-02T17:30:00Z,29.1870,-90.6093,0.0,19.98,2 
LUMCON,ioos:station:LUMCON:102:1,2016-04-02T17:45:00Z,29.1870,-90.6093,0.0,20.07,2 
LUMCON,ioos:station:LUMCON:102:1,2016-04-02T18:00:00Z,29.1870,-90.6093,0.0,20.13,2 
LUMCON,ioos:station:LUMCON:102:1,2016-04-02T18:15:00Z,29.1870,-90.6093,0.0,20.21,2 
LUMCON,ioos:station:LUMCON:102:1,2016-04-02T18:30:00Z,29.1870,-90.6093,0.0,20.28,2 
LUMCON,ioos:station:LUMCON:102:1,2016-04-02T18:45:00Z,29.1870,-90.6093,0.0,20.33,2 
LUMCON,ioos:station:LUMCON:102:1,2016-04-02T19:00:00Z,29.1870,-90.6093,0.0,20.39,2 
LUMCON,ioos:station:LUMCON:102:1,2016-04-02T19:15:00Z,29.1870,-90.6093,0.0,20.45,2 
LUMCON,ioos:station:LUMCON:102:1,2016-04-02T19:30:00Z,29.1870,-90.6093,0.0,20.54,2 
LUMCON,ioos:station:LUMCON:102:1,2016-04-02T19:45:00Z,29.1870,-90.6093,0.0,20.58,2 
LUMCON,ioos:station:LUMCON:102:1,2016-04-02T20:00:00Z,29.1870,-90.6093,0.0,20.57,2 
LUMCON,ioos:station:LUMCON:102:1,2016-04-02T20:15:00Z,29.1870,-90.6093,0.0,20.54,2 
LUMCON,ioos:station:LUMCON:102:1,2016-04-02T20:30:00Z,29.1870,-90.6093,0.0,20.51,2 
LUMCON,ioos:station:LUMCON:102:1,2016-04-02T20:45:00Z,29.1870,-90.6093,0.0,20.5,2 
LUMCON,ioos:station:LUMCON:102:1,2016-04-02T21:00:00Z,29.1870,-90.6093,0.0,20.54,2 
LUMCON,ioos:station:LUMCON:102:1,2016-04-02T21:15:00Z,29.1870,-90.6093,0.0,20.57,2 
LUMCON,ioos:station:LUMCON:102:1,2016-04-02T21:30:00Z,29.1870,-90.6093,0.0,20.66,2 
LUMCON,ioos:station:LUMCON:102:1,2016-04-02T21:45:00Z,29.1870,-90.6093,0.0,20.63,2 
LUMCON,ioos:station:LUMCON:102:1,2016-04-02T22:00:00Z,29.1870,-90.6093,0.0,20.58,2 
LUMCON,ioos:station:LUMCON:102:1,2016-04-02T22:15:00Z,29.1870,-90.6093,0.0,20.58,2 
LUMCON,ioos:station:LUMCON:102:1,2016-04-02T22:30:00Z,29.1870,-90.6093,0.0,20.56,2 
LUMCON,ioos:station:LUMCON:102:1,2016-04-02T22:45:00Z,29.1870,-90.6093,0.0,20.57,2 
LUMCON,ioos:station:LUMCON:102:1,2016-04-02T23:00:00Z,29.1870,-90.6093,0.0,20.56,2 
LUMCON,ioos:station:LUMCON:102:1,2016-04-02T23:15:00Z,29.1870,-90.6093,0.0,20.54,2 
LUMCON,ioos:station:LUMCON:102:1,2016-04-02T23:30:00Z,29.1870,-90.6093,0.0,20.55,2 
LUMCON,ioos:station:LUMCON:102:1,2016-04-02T23:45:00Z,29.1870,-90.6093,0.0,20.56,2 
LUMCON,ioos:station:LUMCON:102:1,2016-04-03T00:00:00Z,29.1870,-90.6093,0.0,20.53,2 
LUMCON,ioos:station:LUMCON:102:1,2016-04-03T00:15:00Z,29.1870,-90.6093,0.0,20.51,2 
LUMCON,ioos:station:LUMCON:102:1,2016-04-03T00:30:00Z,29.1870,-90.6093,0.0,20.53,2 
LUMCON,ioos:station:LUMCON:102:1,2016-04-03T00:45:00Z,29.1870,-90.6093,0.0,20.51,2 
LUMCON,ioos:station:LUMCON:102:1,2016-04-03T01:00:00Z,29.1870,-90.6093,0.0,20.5,2 
LUMCON,ioos:station:LUMCON:102:1,2016-04-03T01:15:00Z,29.1870,-90.6093,0.0,20.48,2 
LUMCON,ioos:station:LUMCON:102:1,2016-04-03T01:30:00Z,29.1870,-90.6093,0.0,20.45,2 
LUMCON,ioos:station:LUMCON:102:1,2016-04-03T01:45:00Z,29.1870,-90.6093,0.0,20.45,2 
LUMCON,ioos:station:LUMCON:102:1,2016-04-03T02:00:00Z,29.1870,-90.6093,0.0,20.46,2 
LUMCON,ioos:station:LUMCON:102:1,2016-04-03T02:15:00Z,29.1870,-90.6093,0.0,20.44,2 
LUMCON,ioos:station:LUMCON:102:1,2016-04-03T02:30:00Z,29.1870,-90.6093,0.0,20.45,2 
LUMCON,ioos:station:LUMCON:102:1,2016-04-03T02:45:00Z,29.1870,-90.6093,0.0,20.48,2 
LUMCON,ioos:station:LUMCON:102:1,2016-04-03T03:00:00Z,29.1870,-90.6093,0.0,20.49,2 
LUMCON,ioos:station:LUMCON:102:1,2016-04-03T03:15:00Z,29.1870,-90.6093,0.0,20.05,2 
LUMCON,ioos:station:LUMCON:102:1,2016-04-03T03:30:00Z,29.1870,-90.6093,0.0,20.04,2 
LUMCON,ioos:station:LUMCON:102:1,2016-04-03T03:45:00Z,29.1870,-90.6093,0.0,20.02,2 
LUMCON,ioos:station:LUMCON:102:1,2016-04-03T04:00:00Z,29.1870,-90.6093,0.0,20.03,2 
LUMCON,ioos:station:LUMCON:102:1,2016-04-03T04:15:00Z,29.1870,-90.6093,0.0,19.93,2 
LUMCON,ioos:station:LUMCON:102:1,2016-04-03T04:30:00Z,29.1870,-90.6093,0.0,19.8,2 
LUMCON,ioos:station:LUMCON:102:1,2016-04-03T04:45:00Z,29.1870,-90.6093,0.0,19.65,2 
LUMCON,ioos:station:LUMCON:102:1,2016-04-03T05:00:00Z,29.1870,-90.6093,0.0,19.59,2 
LUMCON,ioos:station:LUMCON:102:1,2016-04-03T05:15:00Z,29.1870,-90.6093,0.0,19.5,2 
LUMCON,ioos:station:LUMCON:102:1,2016-04-03T05:30:00Z,29.1870,-90.6093,0.0,19.32,2 
LUMCON,ioos:station:LUMCON:102:1,2016-04-03T05:45:00Z,29.1870,-90.6093,0.0,19.16,2 
LUMCON,ioos:station:LUMCON:102:1,2016-04-03T06:00:00Z,29.1870,-90.6093,0.0,19.05,2 
LUMCON,ioos:station:LUMCON:102:1,2016-04-03T06:15:00Z,29.1870,-90.6093,0.0,19.12,2 
LUMCON,ioos:station:LUMCON:102:1,2016-04-03T06:30:00Z,29.1870,-90.6093,0.0,19.11,2 
LUMCON,ioos:station:LUMCON:102:1,2016-04-03T06:45:00Z,29.1870,-90.6093,0.0,19.04,2 
LUMCON,ioos:station:LUMCON:102:1,2016-04-03T07:00:00Z,29.1870,-90.6093,0.0,19.0,2 
LUMCON,ioos:station:LUMCON:102:1,2016-04-03T07:15:00Z,29.1870,-90.6093,0.0,18.94,2 
LUMCON,ioos:station:LUMCON:102:1,2016-04-03T07:30:00Z,29.1870,-90.6093,0.0,18.89,2 
LUMCON,ioos:station:LUMCON:102:1,2016-04-03T07:45:00Z,29.1870,-90.6093,0.0,18.84,2 
LUMCON,ioos:station:LUMCON:102:1,2016-04-03T08:00:00Z,29.1870,-90.6093,0.0,18.76,2 
LUMCON,ioos:station:LUMCON:102:1,2016-04-03T08:15:00Z,29.1870,-90.6093,0.0,18.73,2 
LUMCON,ioos:station:LUMCON:102:1,2016-04-03T08:30:00Z,29.1870,-90.6093,0.0,18.64,2 
LUMCON,ioos:station:LUMCON:102:1,2016-04-03T08:45:00Z,29.1870,-90.6093,0.0,18.62,2 
LUMCON,ioos:station:LUMCON:102:1,2016-04-03T09:00:00Z,29.1870,-90.6093,0.0,18.56,2 
LUMCON,ioos:station:LUMCON:102:1,2016-04-03T09:15:00Z,29.1870,-90.6093,0.0,18.52,2 
LUMCON,ioos:station:LUMCON:102:1,2016-04-03T09:30:00Z,29.1870,-90.6093,0.0,18.41,2 
LUMCON,ioos:station:LUMCON:102:1,2016-04-03T09:45:00Z,29.1870,-90.6093,0.0,18.36,2 
LUMCON,ioos:station:LUMCON:102:1,2016-04-03T10:00:00Z,29.1870,-90.6093,0.0,18.36,2 
LUMCON,ioos:station:LUMCON:102:1,2016-04-03T10:15:00Z,29.1870,-90.6093,0.0,18.32,2 
LUMCON,ioos:station:LUMCON:102:1,2016-04-03T10:30:00Z,29.1870,-90.6093,0.0,18.29,2 
LUMCON,ioos:station:LUMCON:102:1,2016-04-03T10:45:00Z,29.1870,-90.6093,0.0,18.26,2 
LUMCON,ioos:station:LUMCON:102:1,2016-04-03T11:00:00Z,29.1870,-90.6093,0.0,18.21,2 
LUMCON,ioos:station:LUMCON:102:1,2016-04-03T11:15:00Z,29.1870,-90.6093,0.0,18.17,2 
LUMCON,ioos:station:LUMCON:102:1,2016-04-03T11:30:00Z,29.1870,-90.6093,0.0,18.13,2 
LUMCON,ioos:station:LUMCON:102:1,2016-04-03T11:45:00Z,29.1870,-90.6093,0.0,18.11,2 
LUMCON,ioos:station:LUMCON:102:1,2016-04-03T12:00:00Z,29.1870,-90.6093,0.0,18.06,2 
LUMCON,ioos:station:LUMCON:102:1,2016-04-03T12:15:00Z,29.1870,-90.6093,0.0,17.95,2 
LUMCON,ioos:station:LUMCON:102:1,2016-04-03T12:30:00Z,29.1870,-90.6093,0.0,17.97,2 
LUMCON,ioos:station:LUMCON:102:1,2016-04-03T12:45:00Z,29.1870,-90.6093,0.0,17.96,2 
LUMCON,ioos:station:LUMCON:102:1,2016-04-03T13:00:00Z,29.1870,-90.6093,0.0,18.09,2 
LUMCON,ioos:station:LUMCON:102:1,2016-04-03T13:15:00Z,29.1870,-90.6093,0.0,18.05,2 
LUMCON,ioos:station:LUMCON:102:1,2016-04-03T13:30:00Z,29.1870,-90.6093,0.0,18.26,2 
LUMCON,ioos:station:LUMCON:102:1,2016-04-03T13:45:00Z,29.1870,-90.6093,0.0,18.25,2 
LUMCON,ioos:station:LUMCON:102:1,2016-04-03T14:00:00Z,29.1870,-90.6093,0.0,18.21,2 
LUMCON,ioos:station:LUMCON:102:1,2016-04-03T14:15:00Z,29.1870,-90.6093,0.0,18.31,2 
LUMCON,ioos:station:LUMCON:102:1,2016-04-03T14:30:00Z,29.1870,-90.6093,0.0,18.22,2 
LUMCON,ioos:station:LUMCON:102:1,2016-04-03T14:45:00Z,29.1870,-90.6093,0.0,18.19,2 
LUMCON,ioos:station:LUMCON:102:1,2016-04-03T15:00:00Z,29.1870,-90.6093,0.0,18.17,2 
LUMCON,ioos:station:LUMCON:102:1,2016-04-03T15:15:00Z,29.1870,-90.6093,0.0,18.19,2 
LUMCON,ioos:station:LUMCON:102:1,2016-04-03T15:30:00Z,29.1870,-90.6093,0.0,18.16,2 
LUMCON,ioos:station:LUMCON:102:1,2016-04-03T15:45:00Z,29.1870,-90.6093,0.0,18.24,2 
LUMCON,ioos:station:LUMCON:102:1,2016-04-03T16:00:00Z,29.1870,-90.6093,0.0,18.25,2 
LUMCON,ioos:station:LUMCON:102:1,2016-04-03T16:15:00Z,29.1870,-90.6093,0.0,18.29,2 
LUMCON,ioos:station:LUMCON:102:1,2016-04-03T16:30:00Z,29.1870,-90.6093,0.0,18.43,2 
LUMCON,ioos:station:LUMCON:102:1,2016-04-03T16:45:00Z,29.1870,-90.6093,0.0,18.57,2 
LUMCON,ioos:station:LUMCON:102:1,2016-04-03T17:00:00Z,29.1870,-90.6093,0.0,18.71,2 
LUMCON,ioos:station:LUMCON:102:1,2016-04-03T17:15:00Z,29.1870,-90.6093,0.0,18.81,2 
LUMCON,ioos:station:LUMCON:102:1,2016-04-03T17:30:00Z,29.1870,-90.6093,0.0,19.07,2 
LUMCON,ioos:station:LUMCON:102:1,2016-04-03T17:45:00Z,29.1870,-90.6093,0.0,19.31,2 
LUMCON,ioos:station:LUMCON:102:1,2016-04-03T18:00:00Z,29.1870,-90.6093,0.0,19.3,2 
LUMCON,ioos:station:LUMCON:102:1,2016-04-03T18:15:00Z,29.1870,-90.6093,0.0,19.41,2 
LUMCON,ioos:station:LUMCON:102:1,2016-04-03T18:30:00Z,29.1870,-90.6093,0.0,19.32,2 
LUMCON,ioos:station:LUMCON:102:1,2016-04-03T18:45:00Z,29.1870,-90.6093,0.0,19.36,2 
LUMCON,ioos:station:LUMCON:102:1,2016-04-03T19:00:00Z,29.1870,-90.6093,0.0,19.81,2 
LUMCON,ioos:station:LUMCON:102:1,2016-04-03T19:15:00Z,29.1870,-90.6093,0.0,20.04,2 
LUMCON,ioos:station:LUMCON:102:1,2016-04-03T19:30:00Z,29.1870,-90.6093,0.0,20.07,2 
LUMCON,ioos:station:LUMCON:102:1,2016-04-03T19:45:00Z,29.1870,-90.6093,0.0,19.9,2 
LUMCON,ioos:station:LUMCON:102:1,2016-04-03T20:00:00Z,29.1870,-90.6093,0.0,19.87,2 
LUMCON,ioos:station:LUMCON:102:1,2016-04-03T20:15:00Z,29.1870,-90.6093,0.0,19.91,2 
LUMCON,ioos:station:LUMCON:102:1,2016-04-03T20:30:00Z,29.1870,-90.6093,0.0,19.83,2 
LUMCON,ioos:station:LUMCON:102:1,2016-04-03T20:45:00Z,29.1870,-90.6093,0.0,19.86,2 
LUMCON,ioos:station:LUMCON:102:1,2016-04-03T21:00:00Z,29.1870,-90.6093,0.0,19.86,2 
LUMCON,ioos:station:LUMCON:102:1,2016-04-03T21:15:00Z,29.1870,-90.6093,0.0,20.0,2 
LUMCON,ioos:station:LUMCON:102:1,2016-04-03T21:30:00Z,29.1870,-90.6093,0.0,19.94,2 
LUMCON,ioos:station:LUMCON:102:1,2016-04-03T21:45:00Z,29.1870,-90.6093,0.0,19.91,2 
LUMCON,ioos:station:LUMCON:102:1,2016-04-03T22:00:00Z,29.1870,-90.6093,0.0,19.88,2 
LUMCON,ioos:station:LUMCON:102:1,2016-04-03T22:15:00Z,29.1870,-90.6093,0.0,19.86,2 
LUMCON,ioos:station:LUMCON:102:1,2016-04-03T22:30:00Z,29.1870,-90.6093,0.0,19.87,2 
LUMCON,ioos:station:LUMCON:102:1,2016-04-03T22:45:00Z,29.1870,-90.6093,0.0,19.84,2 
LUMCON,ioos:station:LUMCON:102:1,2016-04-03T23:00:00Z,29.1870,-90.6093,0.0,19.83,2 